Regional Weather Roundup
Issued by NWS

Home | Current Version | Previous Version | Text Only | Print | Product List | Glossary On
Versions: 1 2 3 4 5 6 7 8 9 10 11 12 13 14 15 16 17 18 19 20 21 22 23 24 25 26 27 28 29 30 31 32 33 34 35 36 37 38 39
000
ASUS45 KBOU 280407
RWRCO

WEATHER ROUNDUP FOR COLORADO
NATIONAL WEATHER SERVICE DENVER/BOULDER CO
900 PM MST SAT DEC 27 2014

NOTE: "FAIR" INDICATES FEW OR NO CLOUDS BELOW 12000 FEET WITH NO
SIGNIFICANT WEATHER AND/OR OBSTRUCTIONS TO VISIBILITY.

COZ001>005-013-030-031-280500-
...NORTHWEST COLORADO...

CITY           SKY/WX    TMP DP  RH WIND       PRES   REMARKS
CRAIG          CLOUDY     4   0  83 SE5       30.23F WCI  -5
HAYDEN         PTCLDY     3   1  92 E8        30.20S WCI -10
MEEKER         MOCLDY     9   2  73 CALM      30.23F
MOUNT WERNER   NOT AVBL
STEAMBOAT SPGS PTCLDY     0  -3  87 CALM      30.20S VSB 3/4
WALDEN         MOCLDY    10   1  67 S18G24    30.07S WCI  -8
$$

COZ006>008-011-280500-
...WEST CENTRAL VALLEYS...

CITY           SKY/WX    TMP DP  RH WIND       PRES   REMARKS
GRAND JUNCTION PTCLDY    13  10  88 E3        30.31S
MONTROSE       PTCLDY    14   8  77 S7        30.31S WCI   4
EAGLE          PTCLDY     7   1  78 E7        30.27R WCI  -5
RIFLE          MOCLDY    14   6  70 CALM      30.30S
DELTA          PTCLDY    21  10  63 NE9       30.32S WCI  10
NUCLA          PTCLDY    18   9  68 SE7       30.32S WCI   8
$$

COZ017>023-064>068-280500-
...SOUTHWEST COLORADO...

CITY           SKY/WX    TMP DP  RH WIND       PRES   REMARKS
DURANGO        PTCLDY     6   3  87 N6        30.26R WCI  -4
CORTEZ         CLEAR     11   6  81 NE7       30.29R WCI   0
PAGOSA SPRINGS FLURRIES  12  11  93 CALM      30.22R
TELLURIDE      PTCLDY     7   1  78 SE6       30.19R WCI  -3
WOLF CREEK PAS   N/A      1   0  92 MISG      30.07R
$$

COZ009-010-012-014-032>034-037-058>063-280500-
...CENTRAL COLORADO...

CITY           SKY/WX    TMP DP  RH WIND       PRES   REMARKS
ASPEN          PTCLDY     5  -3  69 SW6       30.18S WCI  -6
BUENA VISTA    PTCLDY     7  -3  64 CALM      30.10R
COPPER MTN     PTCLDY     3  -6  66 W3        30.00R
BERTHOUD PASS  FAIR      -8 -13  77 MISG      29.89S
COTTONWOOD PAS PTCLDY    14 -11  31 CALM      30.02S
GUNNISON       PTCLDY    -9 -26  45 CALM      30.25R
KREMMLING      PTCLDY    -2  -8  78 CALM      30.21R
LEADVILLE      PTCLDY    -3 -11  68 N10       30.06S WCI -20
MONARCH PASS   PTCLDY    -2  -8  78 MISG      30.04S
SALIDA         PTCLDY    17   2  53 W15       30.18R WCI   2
SUNLIGHT       PTCLDY   N/A N/A N/A CALM      30.09S
WILKERSON PASS MOCLDY     7 -13  40 W13G22    29.96F WCI  -9
$$

COZ069>075-280500-
...SAN LUIS VALLEY/SANGRE DE CRISTO MOUNTAINS...

CITY           SKY/WX    TMP DP  RH WIND       PRES   REMARKS
ALAMOSA        MOCLDY     3  -2  79 NW3       30.18S
LA VETA PASS   NOT AVBL
SAGUACHE       NOT AVBL
$$

COZ035-036-038>040-280500-
...NORTHERN COLORADO FRONT RANGE...

CITY           SKY/WX    TMP DP  RH WIND       PRES   REMARKS
DENVER INTL AP PTCLDY    13   8  81 SW7       30.04F WCI   3
DMNS CITY PARK   N/A     13   8  82 NE3       30.06S
AURORA         PTCLDY    15   6  68 S10       30.05S WCI   2
FRONT RANGE AP PTCLDY    18   9  68 S13       30.06R WCI   4
ERIE MUNI ARPT   N/A      5   3  90 CALM      30.07S
BOULDER MUN AP PTCLDY    16  12  86 SW3       30.06F
CENTENNIAL     PTCLDY    15   7  70 SE9       30.03S WCI   3
BROOMFIELD     MOCLDY   N/A N/A N/A W3        30.05R
FORT COLLINS   PTCLDY    12   9  85 CALM      30.08S
LONGMONT       PTCLDY     6   2  82 CALM      30.10S
$$

COZ041-046-047-076>085-087-088-280500-
...PIKES PEAK/PALMER DIVIDE AND SOUTHERN FOOTHILLS...

CITY           SKY/WX    TMP DP  RH WIND       PRES   REMARKS
COLO. SPRINGS  PTCLDY    13   5  70 N3        30.06F
A. F. ACADEMY  PTCLDY     7   1  75 N6        30.04F WCI  -3
ELLICOTT       NOT AVBL
FALCON         PTCLDY    11   4  74 NW7       30.04S WCI   1
FORT CARSON    PTCLDY    12   7  81 N5        30.05F WCI   4
LIMON          PTCLDY     6   3  87 N7        30.08S WCI  -6
MONUMENT HILL  PTCLDY    10   3  72 SW9       30.01R WCI  -2
TRINIDAD       CLEAR      5   0  79 NW8       30.09S WCI  -8
$$

COZ042>045-048>051-090-091-280500-
...NORTHEAST COLORADO...

CITY           SKY/WX    TMP DP  RH WIND       PRES   REMARKS
GREELEY ARPT   PTCLDY    -4 -11  71 NW3       30.07S
AKRON          CLEAR     16   8  71 S10       30.08S WCI   4
BURLINGTON     PTCLDY    11   6  81 SW9       30.13F WCI  -2
WRAY           PTCLDY    13   8  80 W7        30.14S WCI   2
STERLING       CLEAR      1   0  92 CALM      30.11F
HOLYOKE        PTCLDY     5   0  78 W9        30.13F WCI  -9
FORT MORGAN    CLEAR      9   1  72 NE6       30.09F WCI  -1
$$

COZ086-089-092>099-280500-
...SOUTHEAST COLORADO...

CITY           SKY/WX    TMP DP  RH WIND       PRES   REMARKS
PUEBLO         PTCLDY    15  10  80 N3        30.11S
LA JUNTA       CLEAR     13   9  84 NW3       30.14S
LAMAR          CLEAR     11   8  88 SW3       30.16R
SPRINGFIELD      N/A     16  12  84 S8        30.14S WCI   5
$$



USA.gov is the U.S. government's official web portal to all federal, state and local government web resources and services.